"Pseudo-MPEC" for ZTF01rZ

Created 2019 Mar 31 15:13:53 UT using Find_Orb

Click here for an explanation of pseudo-MPECs

 
 Astrometry: 
     ZTF01rZ  C2018 12 03.29082904 30 46.70 +13 14 59.3          17.24RUNEOCPI41
     ZTF01rZ  C2018 12 03.29117604 30 49.36 +13 15 45.5          17.24RUNEOCPI41
     ZTF01rZ  C2018 12 03.32561804 35 20.12 +14 31 16.2          17.18RUNEOCPI41
     ZTF01rZ  C2018 12 03.32596504 35 22.94 +14 32 02.4          17.18RUNEOCPI41
     ZTF01rZ  C2018 12 03.33759104 36 58.71 +14 57 30.0          17.03RUNEOCPI41
     ZTF01rZ  C2018 12 03.33793804 37 01.60 +14 58 17.0          17.03RUNEOCPI41

Station data:
(I41) Palomar Mountain--ZTF  (N33.357340 W116.859780)  US/California. 1.2-m
   f/2.44 Oschin Schmidt + CCD.

Orbital elements:  ZTF01rZ
   Perigee 2018 Dec 2.662059 +/- 0.018 TT = 15:53:21 (JD 2458455.162059)
Epoch 2018 Dec  3.0 TT = JDT 2458455.5                        Gray
M 116.84051914 +/- 3.7              (J2000 equator)
n 345.74198181 +/- 7.79             Peri.  199.61507 +/- 0.36
a 43394.5738 +/- 652                Node    45.28171 +/- 0.049
e   0.8215242 +/- 0.00471           Incl.   35.53299 +/- 0.13
P1499.36m/1.041d           H 33.8   G  0.15   U 14.1
q 7744.87791 +/- 320    Q 79044.2698 +/- 1007
From 6 observations 2018 Dec. 3 (67.8 min); mean residual 0".321
Residuals in arcseconds: 
181203 I41 1.2m- .239-    181203 I41 .021- .278-    181203 I41 .089+ .696-
181203 I41 1.7m+ .242+    181203 I41 .018+ .304+    181203 I41 .087- .668+

Ephemerides (geocentric):
Date (UTC) HH   RA              Dec         delta  elong  mag " sig PA
---- -- -- --  -------------   -----------  ------ -----  --- ---- ---
2018 12 03 00  03 27 43.892   +04 43 53.28   72409 156.2 18.3  584  75
2018 12 03 01  03 37 03.415   +06 21 55.25   75143 158.9 18.3  404  82
2018 12 03 02  03 45 51.957   +07 53 23.57   77133 161.4 18.3  285  91
2018 12 03 03  03 54 22.142   +09 20 24.55   78412 163.8 18.2  206 101
2018 12 03 04  04 02 44.361   +10 44 38.16   79001 166.1 18.2  153 112
2018 12 03 05  04 11 08.022   +12 07 29.59   78910 168.4 18.1  115 124
2018 12 03 06  04 19 42.528   +13 30 17.55   78137 170.5 18.0 88.0 139
2018 12 03 07  04 28 38.238   +14 54 21.10   76669 172.6 17.8 68.8 161
2018 12 03 08  04 38 07.641   +16 21 06.62   74483 174.3 17.7 66.3  15
2018 12 03 09  04 48 27.095   +17 52 16.47   71541 175.0 19.4 96.5  46
2018 12 03 10  04 59 59.756   +19 30 01.35   67786 174.1 17.5  169  61
2018 12 03 11  05 13 21.096   +21 17 20.27   63139 171.6 17.5  302  67
2018 12 03 12  05 29 30.477   +23 18 35.38   57480 168.0 17.4  550  69
2018 12 03 13  05 50 18.932   +25 40 35.74   50633 163.1 17.3 1046  71
2018 12 03 14  06 19 49.178   +28 34 26.60   42317 156.2 17.1 2179  72
2018 12 03 15  07 09 20.548   +32 15 21.40   32042 145.1 16.8 5533  77
2018 12 03 16  09 08 58.158   +35 31 34.57   18904 120.4 16.4 408'  92
2018 12 03 17  18 12 31.951   -27 55 17.90    8384  22.0 22??  35d 113
2018 12 03 18  00 34 36.044   -23 02 25.61   22916 105.4 17.3 402'  61
2018 12 03 19  01 42 56.638   -13 22 56.14   35139 124.1 17.6 218'  55
2018 12 03 20  02 15 47.422   -07 55 39.56   44801 133.8 17.9 9425  53
2018 12 03 21  02 37 15.219   -04 10 54.35   52672 140.2 18.1 7655  52
2018 12 03 22  02 53 23.104   -01 18 53.41   59166 145.1 18.2 6619  52
2018 12 03 23  03 06 31.953   +01 01 58.23   64530 149.0 18.2 5951  52
2018 12 04 00  03 17 50.351   +03 02 49.09   68919 152.4 18.3 5495  52
2018 12 04 01  03 27 56.943   +04 50 08.35   72441 155.4 18.3 5179  52
2018 12 04 02  03 37 16.007   +06 28 04.20   75168 158.1 18.3 4963  53
2018 12 04 03  03 46 04.273   +07 59 27.40   77152 160.7 18.3 4826  53
2018 12 04 04  03 54 34.332   +09 26 23.95   78425 163.1 18.2 4759  54
2018 12 04 05  04 02 56.553   +10 50 33.61   79008 165.5 18.2 4759  54
2018 12 04 06  04 11 20.337   +12 13 21.45   78911 167.8 18.1 4828  55
2018 12 04 07  04 19 55.092   +13 36 06.08   78131 170.0 18.0 4977  56
2018 12 04 08  04 28 51.192   +15 00 06.45   76657 172.2 17.8 5225  57
2018 12 04 09  04 38 21.156   +16 26 48.91   74465 174.2 17.7 5605  58
2018 12 04 10  04 48 41.394   +17 57 55.74   71516 175.4 Sha  6169  59
2018 12 04 11  05 00 15.157   +19 35 37.58   67755 175.0 Sha  7015  60
2018 12 04 12  05 13 38.079   +21 22 53.37   63099 172.6 17.4 8323  61
2018 12 04 13  05 29 49.852   +23 24 05.09   57431 169.0 17.4 174'  63
2018 12 04 14  05 50 42.235   +25 46 01.29   50574 164.0 17.3 239'  65
2018 12 04 15  06 20 19.891   +28 39 45.02   42243 157.1 17.1 378'  69
2018 12 04 16  07 10 09.243   +32 20 14.29   31950 145.9 16.8 800'  75
2018 12 04 17  09 11 00.266   +35 31 37.05   18782 121.0 16.4  73d  92
2018 12 04 18  18 20 24.323   -28 40 52.79    8455  22.8 22??  75d 112
2018 12 04 19  00 35 49.479   -22 51 20.40   23032 104.8 17.3 991'  62
2018 12 04 20  01 43 30.175   -13 14 26.07   35230 123.4 17.7 526'  56
2018 12 04 21  02 16 10.379   -07 48 09.76   44875 133.0 17.9 365'  54
2018 12 04 22  02 37 33.617   -04 03 54.34   52733 139.4 18.1 285'  54
2018 12 04 23  02 53 39.079   -01 12 11.01   59217 144.3 18.2 239'  53
2018 12 05 00  03 06 46.498   +01 08 28.94   64572 148.2 18.3 210'  53
2018 12 05 01  03 18 04.011   +03 09 11.36   68954 151.6 18.3 191'  53
2018 12 05 02  03 28 10.054   +04 56 24.15   72469 154.6 18.3 178'  54
2018 12 05 03  03 37 28.800   +06 34 14.78   75190 157.4 18.3 169'  54
2018 12 05 04  03 46 16.920   +08 05 33.59   77167 160.0 18.3 9781  54
2018 12 05 05  03 54 46.973   +09 32 26.35   78434 162.4 18.3 9614  55
2018 12 05 06  04 03 09.312   +10 56 32.63   79012 164.8 18.2 9603  55
2018 12 05 07  04 11 33.336   +12 19 17.38   78909 167.1 18.1 9750  56
2018 12 05 08  04 20 08.459   +13 41 59.10   78124 169.4 18.0 168'  56
2018 12 05 09  04 29 05.072   +15 05 56.69   76644 171.7 17.9 177'  57
2018 12 05 10  04 38 35.729   +16 32 36.41   74446 173.9 17.7 190'  58
2018 12 05 11  04 48 56.896   +18 03 40.48   71491 175.7 Sha  211'  59